Date String (YYYY-MM-DD hh:mm:ss) UTC,Instrument flags,absolute air pressure of the measurement (hPa),sample flow rate (lpm),inlet stack bypass flow (lpm),air temperature of the measurement (°C),ambient temperature measured by the external sensor (°C),aerosol sample conditioner tube jacket temperature (°C),OPC LED temperature (°C),internal box temperature (°C),relative humidity of the measurement (%),span deviation,mass concentration of particles derived from Lorenz-Mie calculation of OPC scattering (μg/m³),mass concentration of particles derived from Lorenz-Mie calculation of OPC scattering (μg/m³),mass concentration of particles derived from Lorenz-Mie calculation of OPC scattering (μg/m³)
DateTimeUTC,F1_M11,P_M11,Q1_M11,Q2_M11,T1_M11,T2_M11,T3_M11,T4_M11,T5_M11,U1_M11,ZSPAN_M11,X0_M11,X2_M11,X1_M11
2023-10-03 15:00:00,SystemResetWarning,0826.4,5.00,000.00,029.1,028.1,000.0,037.4,030.9,21.4,0000.0,0003.97,0002.27,0001.67
2023-10-03 15:01:00,SystemResetWarning,0826.5,4.99,000.00,029.2,028.1,000.0,037.5,031.0,19.3,0000.0,0003.88,0002.17,0001.56
2023-10-03 15:02:00,SystemResetWarning,0826.6,5.00,000.00,029.2,028.1,000.0,037.5,031.0,19.0,0000.0,0003.86,0002.09,0001.49
2023-10-03 15:03:00,SystemResetWarning,0826.6,5.01,000.00,029.2,028.2,000.0,037.5,031.0,18.9,0000.0,0003.85,0002.05,0001.42
2023-10-03 15:04:00,SystemResetWarning,0826.6,5.00,000.00,029.2,028.2,000.0,037.5,031.0,18.2,0000.0,0003.43,0001.95,0001.35
2023-10-03 15:05:00,SystemResetWarning,0826.6,4.98,000.00,029.3,027.6,000.0,037.5,031.1,18.3,0000.0,0003.65,0001.84,0001.29
2023-10-03 15:06:00,SystemResetWarning,0826.4,5.00,000.00,029.2,025.8,000.0,037.5,030.8,18.8,0000.0,0003.60,0001.82,0001.29
2023-10-03 15:07:00,SystemResetWarning,0826.4,5.00,000.00,029.1,025.1,000.0,037.5,030.7,19.3,0000.0,0003.41,0001.75,0001.26
2023-10-03 15:08:00,SystemResetWarning,0826.5,5.02,000.00,029.1,025.3,000.0,037.4,030.5,18.9,0000.0,0003.36,0001.71,0001.23
2023-10-03 15:09:00,SystemResetWarning,0826.6,5.00,000.00,029.0,025.6,000.0,037.5,030.4,18.6,0000.0,0003.31,0001.69,0001.22
2023-10-03 15:10:00,SystemResetWarning,0826.5,5.00,000.00,028.9,025.9,000.0,037.4,030.4,18.5,0000.0,0003.33,0001.69,0001.21
2023-10-03 15:11:00,SystemResetWarning,0826.4,5.00,000.00,028.9,026.3,000.0,037.4,030.4,17.7,0000.0,0003.44,0001.73,0001.21
2023-10-03 15:12:00,SystemResetWarning,0826.5,5.00,000.00,028.9,026.6,000.0,037.4,030.5,15.3,0000.0,0003.50,0001.73,0001.20
2023-10-03 15:13:00,SystemResetWarning,0826.6,5.00,000.00,028.9,026.8,000.0,037.4,030.5,15.0,0000.0,0003.75,0001.75,0001.19
2023-10-03 15:14:00,SystemResetWarning,0826.6,5.00,000.00,028.9,027.0,000.0,037.4,030.5,15.9,0000.0,0003.97,0001.70,0001.17
2023-10-03 15:15:00,SystemResetWarning,0826.6,5.00,000.00,028.9,027.2,000.0,037.4,030.6,16.5,0000.0,0003.97,0001.71,0001.18
2023-10-03 15:16:00,SystemResetWarning,0826.6,4.99,000.00,028.9,027.4,000.0,037.4,030.6,17.0,0000.0,0003.64,0001.78,0001.18
2023-10-03 15:17:00,SystemResetWarning,0826.6,5.00,000.00,028.9,027.5,000.0,037.4,030.6,16.8,0000.0,0003.68,0001.81,0001.19
2023-10-03 15:18:00,SystemResetWarning,0826.6,4.99,000.00,028.9,027.6,000.0,037.4,030.7,17.1,0000.0,0004.00,0001.86,0001.20
2023-10-03 15:19:00,SystemResetWarning,0826.6,5.00,000.00,029.0,027.7,000.0,037.4,030.7,15.5,0000.0,0004.11,0001.91,0001.22
2023-10-03 15:20:00,SystemResetWarning,0826.6,5.00,000.00,029.0,027.7,000.0,037.4,030.7,13.2,0000.0,0004.13,0001.90,0001.21
2023-10-03 15:21:00,SystemResetWarning,0826.6,5.00,000.00,029.0,027.8,000.0,037.4,030.7,13.9,0000.0,0004.12,0001.87,0001.21
2023-10-03 15:22:00,SystemResetWarning,0826.6,5.00,000.00,029.0,027.8,000.0,037.4,030.8,12.9,0000.0,0004.23,0001.90,0001.22
2023-10-03 15:23:00,SystemResetWarning,0826.6,5.01,000.00,029.0,027.9,000.0,037.4,030.8,13.3,0000.0,0004.15,0001.87,0001.23
2023-10-03 15:24:00,SystemResetWarning,0826.5,5.00,000.00,029.1,027.9,000.0,037.4,030.8,13.2,0000.0,0003.77,0001.84,0001.24
2023-10-03 15:25:00,SystemResetWarning,0826.4,5.00,000.00,029.1,027.9,000.0,037.5,030.8,12.2,0000.0,0004.26,0001.84,0001.23
2023-10-03 15:26:00,SystemResetWarning,0826.5,5.00,000.00,029.1,028.0,000.0,037.5,030.9,11.8,0000.0,0004.33,0001.85,0001.22
2023-10-03 15:27:00,SystemResetWarning,0826.4,5.00,000.00,029.1,028.0,000.0,037.5,030.9,12.5,0000.0,0004.21,0001.81,0001.23
2023-10-03 15:28:00,SystemResetWarning,0826.4,4.98,000.00,029.2,027.1,000.0,037.5,030.9,12.0,0000.0,0004.07,0001.75,0001.22
2023-10-03 15:29:00,SystemResetWarning,0826.4,5.00,000.00,029.1,025.3,000.0,037.4,030.6,11.8,0000.0,0003.77,0001.75,0001.23
2023-10-03 15:30:00,SystemResetWarning,0826.4,5.01,000.00,029.0,024.7,000.0,037.4,030.4,12.1,0000.0,0003.83,0001.82,0001.30
2023-10-03 15:31:00,SystemResetWarning,0826.4,5.01,000.00,028.9,024.9,000.0,037.3,030.3,12.4,0000.0,0004.09,0001.95,0001.40
2023-10-03 15:32:00,SystemResetWarning,0826.4,5.00,000.00,028.8,025.2,000.0,037.3,030.2,11.7,0000.0,0004.19,0002.07,0001.52
2023-10-03 15:33:00,SystemResetWarning,0826.6,5.00,000.00,028.7,025.6,000.0,037.3,030.2,13.3,0000.0,0004.25,0002.19,0001.63
2023-10-03 15:34:00,SystemResetWarning,0826.6,4.99,000.00,028.7,026.0,000.0,037.3,030.2,16.3,0000.0,0004.75,0002.33,0001.72
2023-10-03 15:35:00,SystemResetWarning,0826.6,4.99,000.00,028.7,026.3,000.0,037.3,030.2,16.2,0000.0,0005.33,0002.50,0001.81
2023-10-03 15:36:00,SystemResetWarning,0826.5,5.00,000.00,028.7,026.5,000.0,037.3,030.3,17.6,0000.0,0004.89,0002.62,0001.90
2023-10-03 15:37:00,SystemResetWarning,0826.5,5.00,000.00,028.7,026.7,000.0,037.3,030.3,17.9,0000.0,0004.72,0002.66,0001.95
2023-10-03 15:38:00,SystemResetWarning,0826.5,5.00,000.00,028.7,026.9,000.0,037.2,030.3,16.8,0000.0,0004.82,0002.69,0001.97
2023-10-03 15:39:00,SystemResetWarning,0826.4,5.01,000.00,028.7,027.0,000.0,037.2,030.4,16.7,0000.0,0004.95,0002.74,0001.98
2023-10-03 15:40:00,SystemResetWarning,0826.4,5.00,000.00,028.7,027.1,000.0,037.2,030.4,15.3,0000.0,0005.10,0002.76,0002.00
2023-10-03 15:41:00,SystemResetWarning,0826.4,5.00,000.00,028.7,027.1,000.0,037.2,030.4,14.6,0000.0,0005.22,0002.72,0001.95
2023-10-03 15:42:00,SystemResetWarning,0826.4,4.99,000.00,028.7,027.2,000.0,037.2,030.4,14.4,0000.0,0005.07,0002.62,0001.86
2023-10-03 15:43:00,SystemResetWarning,0826.4,4.99,000.00,028.7,027.3,000.0,037.2,030.4,14.6,0000.0,0004.93,0002.54,0001.78
2023-10-03 15:44:00,SystemResetWarning,0826.4,5.00,000.00,028.7,027.3,000.0,037.2,030.4,15.4,0000.0,0004.80,0002.44,0001.68
2023-10-03 15:45:00,SystemResetWarning,0826.4,5.00,000.00,028.8,027.4,000.0,037.2,030.5,13.8,0000.0,0004.19,0002.28,0001.59
2023-10-03 15:46:00,SystemResetWarning,0826.5,5.01,000.00,028.8,027.4,000.0,037.2,030.5,13.3,0000.0,0003.58,0002.10,0001.52
2023-10-03 15:47:00,SystemResetWarning,0826.6,5.01,000.00,028.8,027.4,000.0,037.2,030.5,14.1,0000.0,0003.58,0002.02,0001.45
2023-10-03 15:48:00,SystemResetWarning,0826.4,5.00,000.00,028.8,027.5,000.0,037.2,030.5,13.9,0000.0,0003.52,0001.98,0001.41
2023-10-03 15:49:00,SystemResetWarning,0826.4,4.99,000.00,028.8,027.5,000.0,037.2,030.6,13.0,0000.0,0003.51,0001.97,0001.38
2023-10-03 15:50:00,SystemResetWarning,0826.4,5.00,000.00,028.8,027.6,000.0,037.2,030.6,12.7,0000.0,0003.45,0001.94,0001.36
2023-10-03 15:51:00,SystemResetWarning,0826.5,5.00,000.00,028.9,027.6,000.0,037.2,030.6,13.4,0000.0,0003.31,0001.91,0001.33
2023-10-03 15:52:00,SystemResetWarning,0826.5,5.00,000.00,028.9,027.6,000.0,037.3,030.6,12.9,0000.0,0003.01,0001.84,0001.34
2023-10-03 15:53:00,SystemResetWarning,0826.5,5.01,000.00,028.9,027.7,000.0,037.3,030.6,13.5,0000.0,0003.07,0001.84,0001.34
2023-10-03 15:54:00,SystemResetWarning,0826.5,5.01,000.00,028.9,027.7,000.0,037.3,030.6,13.4,0000.0,0003.88,0001.82,0001.33
2023-10-03 15:55:00,SystemResetWarning,0826.5,4.99,000.00,028.9,027.7,000.0,037.3,030.7,13.9,0000.0,0003.97,0001.82,0001.31
2023-10-03 15:56:00,SystemResetWarning,0826.5,4.99,000.00,029.0,027.7,000.0,037.3,030.7,12.7,0000.0,0004.13,0001.79,0001.27
2023-10-03 15:57:00,SystemResetWarning,0826.5,5.00,000.00,029.0,027.3,000.0,037.3,030.7,12.7,0000.0,0004.13,0001.76,0001.23
2023-10-03 15:58:00,SystemResetWarning,0826.4,5.00,000.00,028.9,025.5,000.0,037.3,030.5,12.6,0000.0,0003.92,0001.67,0001.18
2023-10-03 15:59:00,SystemResetWarning,0826.4,5.01,000.00,028.8,024.5,000.0,037.2,030.3,11.9,0000.0,0003.93,0001.66,0001.15
